Simultaneous Nadir Overpasses (SNOs) Predictions

Prediction of SNOs between NPP and TERRA Satellite Orbit:

Table of predicted SNOs for the next 14.0 days since TLE Epoch: 4/15/2014
Index Date (NPP) Time (NPP) Lat,Lon (NPP) SZA (NPP ) Date (TERRA) Time (TERRA) Lat,Lon (TERRA) SZA (TERRA ) Distance(km) Time Diff (sec)
1 04/16/2014 15:04:50 -69.60, 131.78 120.73 04/16/2014 15:05:58 -69.52, 133.64 120.83 72.99 68
2 04/16/2014 15:55:21 68.78, -59.75 58.41 04/16/2014 15:55:37 68.75, -59.71 58.39 3.09 16
3 04/16/2014 16:46:02 -68.65, 107.75 121.73 04/16/2014 16:45:07 -68.64, 107.78 121.74 1.72 55
4 04/19/2014 07:21:36 -68.82,-111.35 122.47 04/19/2014 07:22:37 -68.82,-111.37 122.47 0.87 61
5 04/19/2014 08:12:20 68.68, 56.14 57.38 04/19/2014 08:12:04 68.71, 56.13 57.41 3.31 16
6 04/19/2014 09:02:53 -68.12,-135.81 123.19 04/19/2014 09:01:42 -68.16,-136.91 123.16 45.72 71
7 04/21/2014 22:48:12 69.83,-164.34 57.65 04/21/2014 22:49:18 69.74,-161.90 57.56 94.27 66
8 04/21/2014 23:38:36 -68.79, 4.46 123.42 04/21/2014 23:39:03 -68.80, 4.50 123.40 2.42 27
9 04/22/2014 00:29:20 68.65, 171.95 56.44 04/22/2014 00:28:31 68.63, 171.93 56.42 2.21 49
10 04/24/2014 15:04:54 68.84, -47.17 55.76 04/24/2014 15:05:59 68.85, -47.18 55.76 0.60 65
11 04/24/2014 15:55:36 -68.76, 120.26 124.34 04/24/2014 15:55:29 -68.74, 120.32 124.36 3.30 7
12 04/24/2014 16:46:13 68.25, -71.76 55.14 04/24/2014 16:45:02 68.29, -72.59 55.18 34.45 71
13 04/27/2014 07:21:52 68.77, 68.69
